#timestamp,LO_Frequency,Hit,StdDev 
1564279215.9,286047000.5,N
1564279235.7,286047000.6,N
1564279255.5,286047000.5,N
1564279275.4,286046999.9,N
1564279295.2,286047002.6,N
1564279315.1,286047002.8,N
1564279316.0,286047002.8,N
1564279335.8,286047002.1,N
1564279355.6,286047002.3,N
1564279375.5,286047001.4,N
1564279395.3,286047001.5,N
1564279415.1,286047002.2,N
1564279435.9,286046999.9,N
1564279455.7,286046999.9,N
1564279475.6,286047000.6,N
1564279495.4,286047000.9,N
1564279515.2,286047000.7,N
1564279535.1,286047000.6,N
1564279536.0,286047000.6,N
1564279555.8,286047000.1,N
1564279575.6,286047002.4,N
1564279595.5,286046999.7,N
1564279615.3,286047001.5,N
1564279635.2,286047001.4,N
1564279655.9,286047002.1,N
1564279675.7,286046999.8,N
1564279695.6,286047002.5,N
1564279715.4,286047001.4,N
1564279735.2,286047001.4,N
1564279755.1,286047001.6,N
1564279756.0,286047001.6,N
1564279775.8,286047004.3,Y
1564279795.7,286047002.4,P
1564279815.5,286046999.7,N
1564279835.3,286047000.2,N
1564279855.2,286047000.0,N
1564279875.0,286047000.3,N
1564279875.9,286047000.3,N
1564279895.8,286046999.8,N
1564279915.6,286047000.1,N
1564279935.4,286047000.1,N
1564279955.3,286046998.6,N
1564279975.1,286047000.3,N
1564279995.8,286047002.8,Y
1564280015.7,286047001.1,P
1564280035.5,286046998.4,P
1564280055.4,286046999.2,N
1564280075.2,286046999.3,N
1564280095.0,286046998.3,N
1564280095.9,286046998.3,N
1564280115.8,286046998.3,N
1564280135.6,286046998.4,N
1564280155.4,286046998.5,N
1564280175.3,286046998.8,N
1564280195.1,286046998.5,N
1564280215.9,286046996.5,Y
1564280235.7,286046999.0,P
1564280255.5,286046999.4,P
1564280275.4,286046998.9,P
1564280295.2,286046998.8,Y
1564280315.1,286047000.0,P
1564280316.0,286047000.0,N
1564280335.8,286047002.5,P
1564280355.6,286046999.7,N
1564280375.5,286046998.8,N
1564280395.3,286046998.6,N
1564280415.1,286047000.2,N
1564280435.9,286047002.4,N
1564280455.7,286046999.7,N
1564280475.6,286047002.7,N
1564280495.4,286047004.0,N
1564280515.2,286047001.6,N
1564280535.1,286047002.3,N
1564280536.0,286047002.3,N
1564280555.8,286046999.9,N
1564280575.7,286047002.6,N
1564280595.5,286046999.9,N
1564280615.3,286046998.1,N
1564280635.2,286046998.4,N
1564280655.9,286046998.6,N
1564280675.7,286046998.2,N
1564280695.6,286046999.9,N
1564280715.4,286046999.8,N
1564280735.3,286046999.8,N
1564280755.1,286046998.6,N
1564280756.0,286046998.6,N
1564280775.8,286047000.5,N
1564280795.7,286047000.0,N
1564280815.5,286047000.2,N
1564280835.3,286047002.7,N
1564280855.2,286047002.2,N
1564280875.0,286047002.5,N
1564280875.9,286047002.5,N
1564280895.8,286047002.2,N
1564280915.6,286047000.4,N
1564280935.4,286047000.6,N
1564280955.3,286046998.5,N
1564280975.1,286047000.8,N
1564280995.8,286046998.8,N
1564281015.7,286046999.6,N
1564281035.5,286046998.2,N
1564281055.4,286046999.8,N
1564281075.2,286047002.4,N
1564281095.0,286047002.8,N
1564281095.9,286047002.8,N
1564281115.8,286047001.6,N
1564281135.6,286047004.3,N
1564281155.4,286047004.4,N
1564281175.3,286047004.0,N
1564281195.1,286046999.9,N
1564281215.9,286046998.5,N
1564281235.7,286047000.9,N
1564281255.5,286046999.7,N
1564281275.4,286047002.8,N
1564281295.2,286047002.3,N
1564281315.1,286047000.9,N
1564281316.0,286047000.9,N
1564281335.8,286046998.3,N
1564281355.6,286047001.2,N
1564281375.5,286047000.1,N
1564281395.3,286047000.5,N
1564281415.1,286046999.9,N
1564281435.9,286046999.8,N
1564281455.7,286047002.1,N
1564281475.6,286047001.5,N
1564281495.4,286047001.6,N
1564281515.2,286047003.9,N
1564281535.1,286047003.7,N
1564281536.0,286047003.7,N
1564281555.8,286047001.3,N
1564281575.6,286047002.5,N
1564281595.5,286046999.9,N
1564281615.3,286047002.0,N
1564281635.2,286047001.8,N
1564281655.9,286047001.3,N
1564281675.7,286047003.8,N
1564281695.6,286047003.2,N
1564281715.4,286047003.6,N
1564281735.2,286047004.4,N
1564281755.1,286047001.6,N
1564281756.0,286047001.6,N
1564281775.8,286047004.4,N
1564281795.7,286047001.7,N
1564281815.5,286047003.7,N
1564281835.3,286047003.4,N
1564281855.2,286047004.1,N
1564281875.0,286047004.1,N
1564281875.9,286047004.1,N
1564281895.8,286047003.7,N
1564281915.6,286047004.4,N
1564281935.4,286047001.4,N
1564281955.3,286047004.0,N
1564281975.1,286047001.7,N
1564281995.8,286047001.6,N
1564282015.7,286047004.4,Y
1564282035.5,286047001.2,P
1564282055.4,286046999.2,N
1564282075.2,286046999.3,N
1564282095.0,286046998.8,N
1564282095.9,286046998.8,N
1564282115.8,286046999.3,N
1564282135.6,286047001.1,N
1564282155.4,286046998.4,N
1564282175.3,286047001.0,N
1564282195.1,286047000.5,N
1564282215.9,286047001.0,N
1564282235.7,286047000.0,N
1564282255.5,286047002.7,N
1564282275.4,286047002.5,N
1564282295.2,286047000.4,N
1564282315.0,286047000.9,N
1564282315.9,286047000.9,N
1564282335.8,286047000.5,N
1564282355.6,286047000.2,N
1564282375.5,286046999.7,N
1564282395.3,286047002.8,N
1564282415.1,286047002.1,N
1564282435.9,286047001.6,N
1564282455.7,286047001.7,N
1564282475.5,286047001.9,N
1564282495.4,286047002.5,N
1564282515.2,286047001.7,N
1564282535.1,286047002.0,N
1564282536.0,286047002.0,N
1564282555.8,286047000.0,N
1564282575.6,286047000.5,N
1564282595.5,286047000.7,N
1564282615.3,286047000.6,N
1564282635.2,286047000.0,N
1564282655.9,286047000.8,N
1564282675.7,286047000.9,N
1564282695.6,286046999.9,N
1564282715.4,286047001.9,N
1564282735.2,286047002.0,N
1564282755.1,286047002.7,N
1564282756.0,286047002.7,N
1564282775.8,286047002.1,N
1564282795.7,286047002.1,N
